Location: Unspecified
(50.1700°N, 6.8600°E)
Time: 15:06:02
(UTC+00:00)

Cosmos 2219 - Pass Details

Date: 24 January 2019
Orbit: 834 x 860 km, 71.1° (Epoch: 19 February)

Event Time Altitude Azimuth Distance (km) Brightness Sun altitude
Exits shadow 04:42:02 22° 343° (NNW) 1,790 4.7 -24.6°
Maximum altitude 04:45:42 57° 56° (NE) 994 3.7 -24.0°
Drops below altitude 10° 04:51:16 10° 135° (SE) 2,462 6.2 -23.1°
Sets 04:53:44 0° 139° (SE) 3,390 7.0 -22.7°
